#timestamp,LO_Frequency,Hit 
1501815615.6,286047001.1,N
1501815635.4,286047000.0,N
1501815655.2,286047000.7,N
1501815675.1,286047002.3,N
1501815676.0,286047002.3,N
1501815695.8,286046999.2,N
1501815715.6,286046998.3,N
1501815735.5,286047000.1,N
1501815755.3,286047004.0,N
1501815775.1,286047002.7,N
1501815795.9,286046998.6,N
1501815815.7,286046999.1,N
1501815835.5,286046999.0,N
1501815855.4,286046999.3,N
1501815875.2,286047000.5,N
1501815895.0,286046998.7,N
1501815895.9,286046998.7,N
1501815915.8,286046998.3,N
1501815935.6,286047000.2,N
1501815955.4,286047003.6,N
1501815975.3,286047003.7,N
1501815995.1,286046999.9,N
1501815996.0,286046999.9,N
1501816015.8,286046998.6,N
1501816035.7,286047002.6,N
1501816055.5,286047003.9,N
1501816075.3,286047005.5,P
1501816095.3,286047005.1,N
1501816115.2,286047005.7,N
1501816135.9,286047007.6,P
1501816155.7,286047002.6,N
1501816175.6,286047002.8,N
1501816195.4,286047000.0,N
1501816215.2,286047001.1,N
1501816235.1,286047000.9,N
1501816236.0,286047000.9,N
1501816255.8,286047000.1,N
1501816275.6,286047000.9,N
1501816295.5,286046998.7,N
1501816315.3,286046999.6,N
1501816335.1,286046999.8,N
1501816355.9,286047001.9,N
1501816375.7,286047000.9,N
1501816395.5,286047000.2,N
1501816415.3,286047002.7,N
1501816435.2,286047002.6,N
1501816455.0,286047000.3,N
1501816455.9,286047000.3,N
1501816475.7,286047001.0,N
1501816495.6,286046998.8,N
1501816515.4,286046994.9,N
1501816535.2,286046997.0,N
1501816555.1,286047000.5,N
1501816556.0,286047000.5,N
1501816575.8,286047002.8,N
1501816595.6,286047001.6,N
1501816615.5,286046999.8,N
1501816635.3,286046999.9,N
1501816655.1,286046999.9,N
1501816675.9,286047002.8,N
1501816695.7,286047000.0,N
1501816715.5,286047001.0,N
1501816735.3,286046997.0,N
1501816755.2,286046998.5,N
1501816775.0,286047000.3,N
1501816775.9,286047000.3,N
1501816795.7,286047001.0,N
1501816815.5,286047000.4,N
1501816835.4,286047000.1,N
1501816855.2,286047001.8,N
1501816875.0,286047001.9,N
1501816875.9,286047001.9,N
1501816895.8,286047000.3,N
1501816915.6,286047000.9,N
1501816935.4,286046999.0,N
1501816955.2,286046999.5,N
1501816975.1,286046998.9,N
1501816976.0,286046998.9,N
1501816995.8,286046999.7,N
1501817015.6,286046999.8,N
1501817035.5,286046998.6,N
1501817055.3,286046999.2,N
1501817075.1,286046998.4,N
1501817095.9,286047000.0,N
1501817115.1,286046996.6,N
1501817135.1,286047001.9,N
1501817136.0,286047001.9,N
1501817155.8,286047002.2,N
1501817175.7,286047002.5,N
1501817195.5,286047000.6,N
1501817215.3,286047002.2,N
1501817235.1,286047000.1,N
1501817255.9,286047000.2,N
1501817275.7,286046999.9,N
1501817295.5,286047000.3,N
1501817315.4,286047001.9,N
1501817335.2,286047000.0,N
1501817355.0,286047004.1,N
1501817355.9,286047004.1,N
1501817375.8,286047004.0,N
1501817395.6,286047001.3,N
1501817415.4,286047001.8,N
1501817435.3,286047001.5,N
1501817455.1,286047002.2,N
1501817456.0,286047002.2,N
1501817475.8,286047002.3,N
1501817495.7,286047002.0,N
1501817515.5,286047000.3,N
1501817535.3,286047002.0,N
1501817555.1,286047001.9,N
1501817575.9,286047000.5,N
1501817595.7,286046998.5,N
1501817615.5,286046999.0,N
1501817635.4,286047000.3,N
1501817655.2,286047000.0,N
1501817675.0,286046998.9,N
1501817675.9,286046998.9,N
1501817695.8,286046999.6,N
1501817715.6,286046998.2,N
1501817735.4,286047001.2,N
1501817755.3,286047000.1,N
1501817775.1,286047001.1,N
1501817776.0,286047001.1,N
1501817795.8,286046996.5,N
1501817815.7,286046998.9,N
1501817835.5,286046999.8,N
1501817855.3,286046999.2,N
1501817875.2,286046998.0,N
1501817895.9,286046995.6,N
1501817915.7,286046999.1,N
1501817935.5,286047001.1,N
1501817955.4,286046998.5,N
1501817975.2,286046998.2,N
1501817995.0,286047000.8,N
1501817995.9,286047000.8,N
1501818015.8,286046995.0,P
1501818035.6,286046997.6,N
1501818055.5,286046997.6,N
1501818075.3,286046997.8,N
1501818095.1,286046995.2,P
1501818115.9,286046995.3,P
1501818135.7,286046999.4,N
1501818155.5,286046997.8,N
1501818175.4,286046998.5,N
1501818195.2,286046996.9,N
1501818215.0,286046995.7,N
1501818215.9,286046995.7,N
1501818235.8,286046997.1,N
1501818255.6,286046999.5,N
1501818275.4,286046999.2,N
1501818295.2,286046997.3,N
1501818315.1,286046995.5,P
1501818316.0,286046995.5,P
1501818335.3,286046997.4,P
1501818355.1,286046997.7,N
1501818375.9,286046999.5,N
1501818395.7,286046999.5,N
1501818415.5,286046996.6,N
1501818435.4,286046995.0,P
1501818455.5,286047002.7,N
1501818475.4,286047001.8,N
1501818495.2,286047002.4,N
1501818515.0,286046999.7,N
1501818515.9,286046999.7,N
1501818535.7,286047002.5,N
1501818555.6,286047004.4,N
1501818575.4,286047001.7,N
1501818595.2,286047001.4,N
1501818615.1,286047002.7,N
1501818616.0,286047002.7,N
1501818635.8,286046999.7,N
1501818655.6,286047004.2,N
1501818675.5,286047004.1,N
1501818695.3,286047001.3,N
1501818715.1,286047003.1,N
1501818735.9,286047001.3,N
1501818755.7,286047003.9,N
1501818775.5,286047000.7,N
1501818795.4,286046998.4,N
1501818815.2,286047002.6,N
1501818835.0,286047006.0,N
1501818835.9,286047006.0,N
1501818855.8,286047004.9,N
1501818875.6,286047007.2,N
1501818895.4,286047007.0,N
1501818915.3,286047003.2,N
1501818935.1,286047006.0,N
1501818936.0,286047006.0,N
1501818955.8,286047003.5,N
1501818975.6,286047003.6,N
1501818995.5,286047000.0,N
1501819015.3,286046999.7,N
1501819035.1,286047001.8,N
1501819055.9,286047004.3,N
1501819075.7,286047001.7,N
1501819095.5,286047002.7,N
1501819115.4,286047000.6,N
1501819135.7,286047001.5,N
1501819155.5,286047001.6,N
1501819175.4,286047001.5,N
1501819195.2,286047001.6,N
